Hourly Data Report for August 14, 2013

All times are specified in Local Standard Time (LST). Add 1 hour to adjust for Daylight Saving Time where and when it is observed.

VICTORIA INTL A
BRITISH COLUMBIA

48°38'50.000" N
123°25'33.000" W
19.50 m
1018621
71799
YYJ

Download Data

Hourly Data (August 2013)
Hourly Data Report for August 14, 2013
Temp Definition
°C
Dew Point Temp Definition
°C
Rel Hum Definition
%
Wind Dir Definition
10's deg

Wind Spd Definition
km/h
Visibility Definition
km
Stn Press Definition
kPa
Hmdx Definition


Wind Chill Definition


Weather Definition


TIME
00:00 Legend Double Dagger 13.6 11.2 85 27 8 48.3 101.17     LegendNANA
01:00 Legend Double Dagger 13.1 11.5 90 16 9 48.3 101.17     Mainly Clear
02:00 Legend Double Dagger 12.3 11.5 95 6 4 48.3 101.16     LegendNANA
03:00 Legend Double Dagger 11.6 10.8 95 11 3 48.3 101.16     LegendNANA
04:00 Legend Double Dagger 11.9 11.0 94 7 1 48.3 101.15     Mostly Cloudy
05:00 Legend Double Dagger 12.2 11.1 93 14 7 48.3 101.15     LegendNANA
06:00 Legend Double Dagger 12.8 11.6 92 16 3 48.3 101.16     LegendNANA
07:00 Legend Double Dagger 14.2 11.7 85 9 8 48.3 101.17     Mostly Cloudy
08:00 Legend Double Dagger 15.5 11.9 79 18 5 48.3 101.20     LegendNANA
09:00 Legend Double Dagger 15.6 11.6 77 9 8 48.3 101.14     LegendNANA
10:00 Legend Double Dagger 17.5 12.3 71 29 3 48.3 101.15     Mostly Cloudy
11:00 Legend Double Dagger 19.0 12.4 65 8 9 48.3 101.13     LegendNANA
12:00 Legend Double Dagger 20.1 12.9 63 8 8 48.3 101.14     LegendNANA
13:00 Legend Double Dagger 20.6 13.4 63 8 9 32.2 101.10     Cloudy
14:00 Legend Double Dagger 21.1 13.4 61 7 7 32.2 101.10     LegendNANA
15:00 Legend Double Dagger 21.0 13.3 61 13 9 32.2 101.10     LegendNANA
16:00 Legend Double Dagger 19.2 13.2 68 12 9 48.3 101.08     Cloudy
17:00 Legend Double Dagger 17.6 15.4 87 14 9 19.3 101.13     Rain
18:00 Legend Double Dagger 15.5 14.2 92 12 10 19.3 101.12     Rain
19:00 Legend Double Dagger 15.1 13.7 91 6 4 32.2 101.12     Cloudy
20:00 Legend Double Dagger 14.4 13.0 91 11 10 32.2 101.15     LegendNANA
21:00 Legend Double Dagger 14.7 13.4 92 12 6 48.3 101.18     LegendNANA
22:00 Legend Double Dagger 13.8 13.0 95 9 7 24.1 101.15     Rain
23:00 Legend Double Dagger 14.3 13.4 94 4 3 24.1 101.16     LegendNANA

Notes on Data Quality.

Legend

  • E = Estimated
  • M = Missing
  • NA = Not Available
  • ‡ = Partner data that is not subject to review by the National Climate Archives
Date modified: